IRIDIUM 134 (43075 NORAD) Tracking and Keplerian Element Data

This shows tracking and keplerian element data for the satellite.

Feedback or suggestion? Click here.




ElementValue
Catalog43075
NameIRIDIUM 134
Epoch Orbit24921
Epoch Day269.47729954
Epoch Year2022
RAAN170.3108
Inclination86.404
Eccentricity0.0002317
Argument of Perigee84.6843
Mean Anonmoly275.4618
Mean Motion14.34221036
Decay Rate2.12E-06
L11 43075U 17083F 22269.47729954 .00000212 00000+0 68548-4 0 9995
L22 43075 86.4040 170.3108 0002317 84.6843 275.4618 14.34221036249216

Live tracking and technical data element details for IRIDIUM 134 (NORAD 43075). IRIDIUM 134 can be tracked NOW for your location showing map with azimuth and elevation plus other details from your city location.

Track the satellite on the map from your city or location and see movement details for azimuth, elevation, latitude, longitude, range, height, and movement on the map or in text.







IsCatalogInMostPopularTable: catalog: 43075, numindb: 626
Update: records affected: 1



GetName: 43075 IRIDIUM 134

Hit Count: updated at: Wed, 28 Sep 2022 23:30:12 GMT